Location: Austin
(30.3000°N, 97.7500°W)
Time: 01:02:42
(UTC-06:00)

VEP-3 - Pass Details

Date: 04 November 2025
Orbit: 1075 x 33669 km, 23.7° (Epoch: 15 November)

Event Time Altitude Azimuth Distance (km) Brightness Sun altitude
Rises 19:55:13 0° 270° (W) 5,201 7.5 -29.3°
Reaches altitude 10° 19:59:07 10° 262° (W) 3,419 6.2 -30.2°
Maximum altitude 20:05:05 39° 192° (SSW) 1,546 3.5 -31.5°
Enters shadow 20:05:36 38° 179° (S) 1,571 3.5 -31.6°
